Wind_Speed
42 46 45 48 48 45 44 44 43 44 45 47 46 42 41 42 41 40 44 44 46 45 41 33 30 23 20 15 19 16 15 14 12 8 6 6 6 6 3 5 14 18 17 18
47 49 51 52 52 50 48 47 49 48 49 51 51 48 50 51 47 45 47 49 46 50 45 41 36 32 24 21 18 19 19 18 18 16 12 8 7 5 5 3 6 15 21 21
51 54 54 55 55 56 53 53 52 51 55 55 59 59 59 54 53 54 52 49 49 50 50 46 42 38 30 27 22 20 21 20 19 20 18 14 9 8 7 5 4 6 18 24
53 56 57 58 58 59 58 58 58 59 61 61 68 67 59 52 54 53 54 52 50 49 53 50 48 44 38 30 26 26 22 21 22 21 22 18 15 10 10 10 8 9 9 17
58 58 60 62 63 63 61 61 62 65 65 70 64 66 45 50 48 49 55 57 54 52 52 53 53 50 42 36 33 30 24 22 21 22 24 21 19 13 12 12 13 13 10 15
60 63 63 65 65 65 64 62 64 66 68 69 59 56 41 41 44 50 60 61 60 59 52 54 57 52 48 43 38 35 31 28 28 26 25 24 22 18 17 16 14 13 12 9
65 67 63 68 69 70 67 65 66 68 71 63 48 43 30 39 47 53 59 66 65 63 59 51 53 53 51 47 43 39 38 32 31 29 26 27 23 21 20 20 14 15 18 19
68 75 70 71 72 73 72 67 70 71 70 56 42 33 29 40 51 50 61 66 64 63 57 50 51 53 55 51 47 43 42 37 34 33 30 27 25 22 21 24 19 18 23 25
70 74 76 76 77 76 73 69 70 71 65 49 37 27 30 43 48 51 61 66 69 59 55 54 51 54 57 55 52 48 45 41 39 37 33 29 25 23 21 22 21 23 25 27
72 73 78 80 80 77 72 73 70 70 59 48 35 25 33 42 46 51 54 72 65 63 61 57 56 53 57 58 54 51 50 45 41 40 36 29 27 24 22 25 25 25 25 24
72 75 78 81 80 77 77 78 79 67 49 41 31 24 24 34 40 58 51 58 74 67 65 61 62 53 52 56 56 54 51 48 43 41 40 30 25 24 27 28 26 30 28 27
76 76 78 78 78 71 73 77 80 67 48 38 30 26 41 45 47 56 69 67 71 68 64 63 63 56 52 50 54 54 52 48 44 40 36 32 28 28 31 32 32 28 25 27
78 80 78 75 74 76 71 74 72 63 51 38 25 17 24 14 15 53 66 66 69 67 64 63 62 57 49 44 48 50 51 48 45 41 33 31 26 30 30 29 27 26 20 29
78 79 78 73 74 77 73 74 67 59 43 36 27 22 3 7 42 62 64 66 66 66 61 57 58 56 50 45 38 36 39 39 39 38 35 30 25 21 23 19 26 34 28 30
79 76 76 75 75 76 74 72 62 47 41 33 24 29 24 23 59 59 59 63 66 58 44 44 61 55 52 50 41 35 27 19 22 22 27 25 26 27 26 31 31 37 34 24
79 77 77 79 78 75 75 70 55 41 38 33 25 48 40 65 73 73 56 60 61 59 54 41 55 65 55 50 39 30 25 23 20 6 25 25 27 49 49 48 39 40 35 26
79 78 80 80 81 78 75 58 47 40 32 36 32 47 55 42 47 50 50 57 63 69 80 47 41 61 54 42 38 35 23 34 44 47 46 48 50 35 47 50 46 40 33 28
81 82 81 80 83 78 64 42 40 39 35 35 30 37 43 35 41 42 48 52 64 71 74 70 76 65 53 44 40 55 34 45 51 45 72 59 50 61 50 51 55 42 32 36
83 85 83 82 82 72 46 19 43 43 28 18 22 29 23 19 21 33 40 49 55 68 74 74 75 65 56 58 56 66 66 76 72 70 73 69 67 66 67 54 54 41 35 36
87 86 82 82 77 59 37 25 41 39 17 17 20 22 29 26 25 15 21 36 48 54 66 66 65 68 63 61 60 58 59 60 57 66 70 71 75 59 44 43 52 56 58 49
86 82 78 72 61 49 32 29 27 21 24 17 18 22 31 37 29 31 36 42 41 49 57 64 66 71 68 74 64 64 61 60 67 57 58 71 69 52 42 39 53 53 45 47
81 77 69 53 45 38 23 27 23 29 32 27 21 9 18 31 34 40 40 39 42 47 49 52 61 69 71 72 75 73 76 77 78 70 63 58 51 44 56 57 42 72 53 57
76 68 55 46 40 36 32 28 35 39 39 39 34 29 29 35 33 36 37 46 44 41 44 44 52 61 66 69 73 75 74 78 69 63 59 58 49 50 53 52 47 49 51 57
66 57 45 40 35 35 31 28 46 41 41 45 40 34 44 42 43 37 41 38 38 37 34 42 48 52 61 67 71 72 74 75 67 60 59 60 52 58 56 49 47 49 47 47
54 46 38 32 29 27 18 32 54 45 46 45 37 38 43 40 43 44 45 43 41 40 34 36 39 43 50 59 65 74 78 80 78 73 61 61 56 62 61 53 49 54 49 44
42 36 29 27 24 21 17 20 59 53 54 53 49 46 42 49 49 53 51 50 45 37 41 37 39 44 45 52 56 66 73 74 76 71 67 62 56 60 59 49 52 61 54 53
Wind_Direction
328 329 332 328 322 316 313 312 305 299 296 293 291 287 281 278 268 259 255 249 241 242 240 237 241 231 240 245 253 230 232 241 240 239 254 293 330 326 316 217 226 213 205 206
326 329 331 328 324 318 315 311 304 304 298 296 291 287 281 273 265 254 245 248 241 239 237 236 234 237 225 236 246 243 230 235 242 244 246 260 302 319 317 306 230 224 222 217
325 328 329 327 322 318 314 311 309 305 299 297 295 290 284 275 259 244 241 238 241 237 235 233 233 233 229 228 235 247 236 230 236 244 244 244 254 282 279 266 296 249 233 227
324 326 326 326 322 318 315 313 311 307 303 301 298 295 285 273 257 240 237 230 236 235 233 230 232 233 229 224 231 239 238 232 234 237 244 242 238 246 268 286 296 279 277 241
321 324 325 324 322 319 316 314 311 309 309 305 300 290 282 263 251 236 224 229 226 231 231 227 228 229 227 226 230 235 229 236 229 241 241 239 241 241 252 266 280 297 271 259
318 320 324 321 320 318 316 314 311 312 311 308 297 285 274 256 247 231 217 224 222 227 228 226 226 225 228 225 226 234 223 229 231 234 236 237 238 242 253 262 278 279 264 245
316 316 321 318 320 319 317 317 313 314 317 312 298 285 270 241 233 226 215 218 220 221 225 227 227 225 227 226 225 230 229 227 233 237 236 235 236 240 249 263 283 266 267 249
316 317 320 318 320 319 318 318 317 321 321 312 299 282 251 231 223 220 217 217 220 220 223 228 228 225 226 226 226 228 233 230 236 241 237 235 239 243 249 263 279 276 262 261
316 317 317 318 319 318 318 319 319 323 322 315 305 278 237 216 225 219 216 216 218 217 217 222 225 224 224 225 226 227 232 230 234 240 238 236 242 245 255 260 271 282 277 274
314 316 315 317 318 317 319 319 320 326 322 318 311 275 233 222 226 221 206 220 215 214 214 217 224 225 224 224 226 225 232 232 236 243 238 240 243 250 263 269 275 275 283 262
313 314 315 316 318 318 321 321 323 328 322 318 306 264 234 220 210 215 201 245 214 213 212 215 222 222 222 223 226 227 231 233 236 242 239 240 242 249 257 266 268 272 270 249
311 313 315 315 316 318 319 320 318 327 323 320 304 264 243 222 218 224 217 217 211 212 211 213 220 221 223 220 225 228 232 234 238 240 237 242 245 253 264 270 266 264 270 241
310 313 313 315 314 315 319 320 320 318 310 308 286 272 262 244 79 254 229 217 210 211 212 213 219 222 223 222 224 226 232 235 240 243 235 242 249 252 258 266 275 269 251 241
309 311 311 314 312 314 318 318 314 307 301 295 274 250 1 292 207 238 225 219 209 210 213 216 223 223 222 224 223 224 231 238 245 253 246 250 241 227 242 258 286 289 270 252
308 309 310 311 312 313 316 315 309 302 293 289 265 143 83 282 266 252 233 218 209 207 209 243 233 228 227 226 228 235 245 260 259 266 252 218 210 221 242 270 276 277 272 264
306 308 309 311 311 313 315 313 307 295 287 281 245 176 180 225 236 249 232 220 208 195 179 198 227 225 224 224 227 235 242 247 237 314 256 243 241 261 262 264 252 258 263 269
305 307 309 311 310 312 315 311 301 295 289 298 262 221 219 229 218 221 220 217 206 197 198 196 228 229 219 223 222 223 243 213 227 190 240 262 260 247 267 253 244 242 248 268
302 305 308 310 310 313 313 308 300 289 275 253 259 234 220 217 212 213 215 215 209 204 203 206 207 222 216 213 194 221 205 221 202 215 217 211 212 240 244 252 240 240 247 261
302 305 308 308 310 312 308 305 274 282 283 262 236 217 203 198 210 231 219 215 211 208 211 211 219 218 207 201 207 203 216 218 227 225 227 232 224 231 247 245 235 240 241 254
302 305 307 307 308 310 302 274 237 261 238 239 211 202 182 188 167 197 255 243 228 212 213 217 217 220 206 207 206 207 210 218 226 225 229 220 222 240 244 248 240 244 251 257
301 303 304 304 303 301 293 279 265 228 197 198 186 178 180 159 172 161 223 249 230 227 219 215 215 221 215 214 208 213 218 218 219 229 234 232 233 243 255 234 246 257 270 263
300 300 300 297 289 289 300 283 239 200 196 186 157 134 192 196 194 187 208 228 235 225 226 223 223 225 222 220 225 225 221 219 224 237 235 233 239 238 235 237 237 271 265 256
298 295 290 285 277 274 257 249 212 202 194 184 168 169 190 222 208 214 221 229 232 231 231 230 227 226 229 228 224 226 229 227 228 231 234 227 233 227 228 227 226 225 249 251
293 290 286 278 267 263 260 236 205 200 191 191 187 193 209 221 211 222 233 236 232 239 241 239 234 232 229 229 228 229 228 231 232 233 233 237 221 224 223 232 251 239 248 253
287 285 278 269 259 255 249 213 202 198 196 186 194 212 222 224 228 226 232 239 240 245 252 252 246 240 240 237 230 231 233 232 235 238 237 234 236 229 233 245 241 242 255 253
282 278 272 258 244 220 179 208 208 205 206 198 198 207 222 227 232 232 232 239 244 255 264 257 249 250 247 243 241 239 234 233 234 234 232 230 236 235 243 238 236 237 246 250
Height
10923 10918 10917 10911 10906 10902 10898 10895 10893 10889 10887 10884 10885 10888 10888 10887 10887 10888 10889 10893 10898 10901 10906 10909 10913 10918 10921 10922 10925 10924 10925 10926 10926 10926 10927 10927 10926 10925 10924 10925 10926 10929 10930 10930
10912 10909 10905 10900 10894 10890 10888 10886 10881 10879 10873 10869 10869 10872 10871 10870 10874 10874 10877 10879 10887 10890 10896 10900 10903 10909 10914 10917 10919 10920 10920 10920 10922 10922 10923 10923 10924 10923 10922 10923 10923 10925 10927 10927
10904 10898 10895 10891 10884 10878 10875 10870 10867 10864 10856 10855 10849 10849 10849 10850 10851 10856 10860 10867 10871 10878 10884 10891 10894 10898 10905 10909 10912 10913 10915 10915 10916 10918 10919 10920 10920 10921 10921 10921 10922 10923 10924 10925
10894 10889 10886 10882 10875 10868 10861 10856 10851 10845 10839 10835 10825 10821 10826 10826 10824 10836 10846 10853 10857 10863 10869 10879 10885 10888 10895 10901 10904 10906 10908 10910 10910 10912 10914 10915 10916 10918 10919 10919 10919 10920 10920 10921
10881 10880 10876 10871 10864 10857 10852 10844 10836 10827 10820 10811 10810 10792 10807 10799 10805 10816 10829 10834 10843 10847 10855 10865 10871 10877 10885 10891 10894 10897 10902 10903 10904 10906 10908 10910 10912 10913 10915 10916 10916 10916 10918 10920
10873 10868 10867 10859 10854 10847 10840 10832 10823 10815 10803 10792 10782 10773 10784 10784 10789 10797 10808 10818 10828 10832 10841 10850 10857 10868 10875 10880 10885 10888 10893 10896 10898 10899 10901 10904 10906 10908 10910 10911 10913 10913 10914 10916
10860 10855 10857 10847 10841 10833 10826 10819 10809 10800 10786 10771 10764 10760 10766 10765 10769 10778 10792 10800 10807 10816 10826 10838 10848 10858 10865 10871 10876 10880 10883 10888 10890 10892 10894 10897 10901 10903 10905 10906 10907 10909 10910 10911
10850 10835 10839 10833 10829 10817 10808 10803 10792 10782 10769 10754 10752 10748 10750 10743 10749 10764 10776 10788 10795 10807 10816 10827 10836 10846 10854 10861 10867 10872 10874 10880 10884 10884 10888 10892 10895 10897 10899 10900 10903 10904 10905 10906
10838 10829 10820 10816 10810 10802 10794 10792 10780 10769 10755 10744 10740 10737 10739 10737 10743 10754 10764 10776 10779 10798 10810 10817 10824 10831 10840 10848 10855 10861 10865 10870 10874 10877 10882 10886 10889 10892 10894 10897 10898 10898 10900 10900
10828 10820 10807 10800 10794 10785 10783 10772 10766 10757 10740 10732 10730 10729 10724 10730 10734 10742 10755 10758 10778 10783 10793 10802 10809 10817 10826 10835 10844 10851 10854 10861 10866 10871 10877 10882 10885 10889 10890 10892 10893 10895 10896 10896
10817 10809 10798 10786 10779 10769 10759 10749 10739 10744 10735 10727 10725 10723 10717 10722 10724 10726 10760 10787 10757 10767 10777 10788 10794 10805 10815 10824 10833 10840 10848 10853 10859 10863 10871 10876 10881 10882 10883 10883 10886 10887 10890 10891
10801 10796 10788 10778 10763 10766 10754 10739 10731 10729 10722 10721 10715 10718 10711 10715 10718 10727 10727 10737 10746 10758 10769 10777 10785 10796 10803 10815 10824 10832 10839 10846 10853 10857 10866 10871 10874 10877 10878 10878 10877 10879 10881 10883
10788 10780 10775 10768 10754 10744 10747 10733 10721 10716 10714 10713 10712 10707 10713 10737 10751 10732 10722 10727 10738 10752 10763 10770 10777 10787 10799 10807 10814 10822 10832 10839 10845 10851 10857 10862 10867 10869 10871 10874 10875 10873 10871 10872
10776 10768 10760 10755 10744 10735 10732 10720 10715 10703 10706 10704 10702 10704 10720 10733 10721 10708 10715 10720 10736 10747 10764 10776 10779 10784 10795 10802 10810 10818 10826 10835 10842 10848 10855 10858 10861 10863 10862 10863 10867 10870 10866 10865
10762 10755 10746 10740 10733 10723 10718 10711 10700 10695 10691 10695 10692 10707 10712 10722 10702 10703 10714 10714 10729 10759 10782 10775 10776 10787 10790 10795 10807 10816 10827 10833 10839 10844 10849 10853 10853 10853 10857 10855 10855 10861 10861 10855
10745 10739 10732 10722 10715 10712 10703 10692 10684 10680 10676 10679 10686 10688 10668 10662 10687 10695 10704 10708 10725 10759 10758 10744 10749 10767 10773 10788 10805 10815 10819 10824 10833 10835 10852 10847 10844 10847 10842 10847 10842 10847 10853 10850
10730 10724 10715 10706 10695 10693 10687 10678 10671 10667 10669 10666 10671 10671 10665 10671 10673 10678 10689 10697 10709 10733 10747 10752 10757 10753 10768 10786 10794 10803 10808 10820 10815 10824 10861 10837 10849 10835 10830 10836 10833 10834 10839 10842
10714 10709 10701 10692 10678 10677 10672 10669 10663 10658 10659 10659 10656 10656 10657 10662 10665 10671 10679 10687 10697 10710 10725 10736 10740 10746 10762 10772 10786 10794 10801 10804 10806 10798 10809 10813 10814 10813 10816 10825 10827 10826 10829 10832
10696 10690 10684 10673 10665 10663 10660 10663 10650 10646 10645 10643 10644 10646 10654 10661 10675 10677 10680 10680 10684 10698 10706 10719 10726 10735 10746 10753 10761 10764 10767 10769 10782 10782 10789 10790 10794 10803 10810 10815 10819 10820 10821 10822
10678 10673 10665 10654 10648 10648 10644 10649 10643 10638 10642 10638 10638 10642 10649 10657 10671 10681 10686 10686 10682 10684 10693 10707 10716 10723 10733 10736 10742 10749 10753 10757 10764 10773 10774 10776 10783 10788 10795 10798 10809 10810 10810 10814
10663 10658 10649 10639 10633 10633 10633 10632 10632 10632 10634 10634 10636 10640 10646 10654 10661 10665 10674 10672 10675 10679 10687 10694 10701 10708 10718 10725 10732 10738 10741 10744 10750 10759 10761 10763 10773 10783 10787 10797 10800 10804 10803 10803
10645 10639 10634 10628 10623 10624 10626 10624 10625 10624 10627 10631 10634 10641 10650 10653 10654 10655 10660 10663 10664 10668 10672 10681 10690 10695 10704 10713 10720 10726 10728 10735 10742 10747 10752 10757 10769 10773 10783 10786 10790 10772 10783 10784
10627 10621 10617 10615 10615 10611 10614 10615 10615 10616 10621 10625 10630 10638 10646 10647 10647 10648 10648 10651 10656 10658 10662 10667 10674 10681 10687 10696 10703 10711 10717 10724 10732 10736 10741 10750 10759 10766 10769 10772 10769 10768 10761 10765
10603 10600 10601 10598 10598 10599 10602 10604 10607 10612 10616 10621 10625 10633 10634 10637 10638 10640 10643 10646 10650 10653 10655 10658 10662 10669 10677 10683 10689 10695 10704 10710 10714 10721 10729 10739 10748 10752 10753 10753 10753 10749 10749 10752
10585 10583 10582 10583 10586 10589 10594 10596 10602 10606 10609 10611 10619 10625 10625 10629 10633 10634 10637 10638 10642 10644 10648 10650 10654 10659 10664 10668 10676 10683 10689 10696 10700 10709 10716 10724 10730 10735 10737 10738 10737 10735 10740 10745
10569 10569 10569 10571 10575 10580 10587 10591 10597 10600 10602 10603 10607 10612 10615 10618 10621 10624 10627 10630 10633 10638 10639 10641 10645 10648 10653 10657 10662 10667 10673 10680 10688 10695 10701 10708 10713 10719 10723 10725 10727 10729 10732 10733